Regional Weather Roundup
Issued by NWS

Home | Current Version | Previous Version | Text Only | Print | Product List | Glossary On
Versions: 1 2 3 4 5 6 7 8 9 10 11 12 13 14 15 16 17 18 19 20 21 22 23 24 25 26 27 28 29 30 31 32 33 34 35 36 37 38 39 40 41 42 43 44 45 46 47 48 49 50
000
ASUS43 KMPX 171301
RWRMN
WEATHER ROUNDUP FOR MINNESOTA
NATIONAL WEATHER SERVICE TWIN CITIES/CHANHASSEN MN
700 AM CST FRI NOV 17 2017


NOTE: "FAIR" INDICATES FEW OR NO CLOUDS BELOW 12,000 FEET WITH NO
SIGNIFICANT WEATHER AND/OR OBSTRUCTIONS TO VISIBILITY. N/A MEANS
CURRENT SKY AND/OR WEATHER CONDITIONS ARE NOT AVAILABLE.

MNZ060>063-068>070-171400-
   Twin Cities Metro

CITY           SKY/WX    TMP DP  RH WIND       PRES   REMARKS
TWIN CITIES    CLOUDY    37  31  78 S14G23    29.74S
ST PAUL        CLOUDY    37  30  75 S14       29.76S
CRYSTAL        MIX PCPN  37  28  70 S14G23    29.72S
BLAINE         CLOUDY    37  30  75 SE10G18   29.72F
LAKEVILLE      CLOUDY    36  30  80 S14G23    29.72S
EDEN PRAIRIE   CLOUDY    38  30  73 S14       29.71S
SOUTH ST PAUL  CLOUDY    37  30  75 S7        29.75R
LAKE ELMO      CLOUDY    36  32  87 SE13      29.75F
$$
MNZ001>005-007-008-013>017-022>024-027-028-171400-
   Northwest Minnesota

CITY           SKY/WX    TMP DP  RH WIND       PRES   REMARKS
BEMIDJI        CLOUDY    32  28  83 S7        29.61F WCI  26
HALLOCK        PTCLDY    32  30  93 SW12      29.61R WCI  23
ROSEAU         CLOUDY    34  28  80 SW14      29.58R WCI  24
WARROAD        CLOUDY    34  28  80 SW10      29.59S WCI  26
CROOKSTON      CLOUDY    32  28  86 SW6       29.62F WCI  26
FOSSTON        CLOUDY    30  27  86 S9        29.61F WCI  22
DETROIT LAKES  CLOUDY    32  30  93 S7        29.64R WCI  26
MOORHEAD       MOCLDY    34  28  80 CALM      29.65R
PARK RAPIDS    CLOUDY    32  27  81 SE14      29.62F WCI  22
MAHNOMEN       CLOUDY    33  28  83 S7        29.61R WCI  27
$$
MNZ006-009>011-018-025>026-171400-
   North Central Minnesota

CITY           SKY/WX    TMP DP  RH WIND       PRES   REMARKS
BAUDETTE       CLOUDY    33  28  81 S14       29.59R WCI  23
FLAG ISLAND    CLOUDY    32  28  86 S9G16     29.56F WCI  24
INTL FALLS     CLOUDY    32  25  75 S9G23     29.60F WCI  24
WASKISH        CLOUDY    34  28  80 S9G17     29.64R WCI  26
BIG FORK       CLOUDY    34  28  80 S13G18    29.65F WCI  25
LONGVILLE      CLOUDY    34  28  80 S6        29.66F WCI  29
GRAND RAPIDS   CLOUDY    32  28  85 S9        29.72R WCI  24
CRANE LAKE     CLOUDY    30  27  86 S7        29.70F WCI  23
ORR            CLOUDY    30  25  80 S12G17    29.65F WCI  21
COOK           CLOUDY    30  27  86 S8G16     29.69F WCI  23
WALKER         LGT RAIN  32  27  82 SE8       29.61F WCI  25
$$
MNZ012-019>021-037-171400-
   Northeast Minnesota

CITY           SKY/WX    TMP DP  RH WIND       PRES   REMARKS
DULUTH         CLOUDY    31  28  89 S13       29.71F WCI  21
ELY            CLOUDY    30  27  86 S8        29.70F WCI  23
HIBBING        CLOUDY    30  25  81 S6        29.71S WCI  24
EVELETH        CLOUDY    30  23  74 S7        29.72R WCI  23
DULUTH HARBOR  MIX PCPN  36  30  80 S10       29.77F
TWO HARBORS    CLOUDY    36  28  75 S9        29.73F
SILVER BAY     CLOUDY    34  28  80 SE6       29.74F WCI  29
G MARAIS ARPRT CLOUDY    28  25  86 S8G16     29.75F WCI  20
$$
MNZ029>031-032-039>041-046>048-054>057-064-171400-
   West Central Minnesota

CITY           SKY/WX    TMP DP  RH WIND       PRES   REMARKS
FERGUS FALLS   CLOUDY    34  28  80 S10       29.63R WCI  26
WHEATON        CLOUDY    32  28  86 SE13      29.60F WCI  22
MORRIS         CLOUDY    34  28  80 SE8       29.63S WCI  27
ALEXANDRIA     CLOUDY    33  29  85 SE7       29.64F WCI  27
ELBOW LAKE     FAIR      33  29  87 E15       29.61F FOG     WCI  22
WADENA         CLOUDY    32  28  86 SE10      29.63F WCI  24
GLENWOOD       CLOUDY    34  30  86 S9        29.63F WCI  26
APPLETON       CLOUDY    34  28  80 CALM      29.63S
BENSON         CLOUDY    34  30  86 S9        29.64F WCI  26
ORTONVILLE     CLOUDY    32  27  80 MISG      29.61S
MADISON        CLOUDY    36  30  80 CALM      29.63R
WILLMAR        FAIR      36  30  80 SE12      29.65F
$$
MNZ033>034-036-042>043-049>051-058-059-171400-
   Central Minnesota

CITY           SKY/WX    TMP DP  RH WIND       PRES   REMARKS
ST CLOUD       CLOUDY    36  30  79 SE12      29.68F
SAUK CENTRE    FAIR      32  29  88 SE8       29.65S WCI  25
PAYNESVILLE    CLOUDY    35  31  88 SE8       29.65F WCI  28
AITKIN         CLOUDY    32  27  80 S7        29.67F WCI  26
PINE RIVER     CLOUDY    30  27  86 SE6       29.71S WCI  24
BRAINERD       CLOUDY    34  28  79 S7        29.68F WCI  28
STAPLES        CLOUDY    32  27  80 SE5       29.66S WCI  27
LONG PRAIRIE   FAIR      32  30  93 SE12      29.66S WCI  23
LITTLE FALLS   CLOUDY    34  27  75 SE7       29.67F WCI  28
LITCHFIELD     CLOUDY    37  32  81 SE7       29.68S
BUFFALO        CLOUDY    37  30  76 SE9       29.71S
MAPLE LAKE     CLOUDY    37  32  82 SE9       29.70S
HUTCHINSON     CLOUDY    37  32  81 SE7       29.68F
$$
MNZ037-044-045-052-053-171400-
   East Central Minnesota

CITY           SKY/WX    TMP DP  RH WIND       PRES   REMARKS
PRINCETON      CLOUDY    37  30  75 SE9       29.71S
MORA           CLOUDY    34  28  80 S7        29.74F WCI  28
CAMBRIDGE      CLOUDY    36  36 100 SE8       29.73S
RUSH CITY      DRIZZLE   33  31  90 S10       29.74F WCI  25
MOOSE LAKE     CLOUDY    32  30  93 S6        29.71S WCI  26
HINCKLEY       MIX PCPN  32  32 100 S7        29.74S WCI  26
CLOQUET        CLOUDY    32  27  80 SE7       29.71F WCI  26
MCGREGOR       CLOUDY    34  30  86 S8        29.71S WCI  27
$$
MNZ071>073-080-081-089-090-097-098-171400-
   Southwest Minnesota

CITY           SKY/WX    TMP DP  RH WIND       PRES   REMARKS
MONTEVIDEO     CLOUDY    32  30  93 S6        29.63R WCI  26
GRANITE FALLS  CLOUDY    35  31  86 SE7       29.64F WCI  29
CANBY          PTCLDY    37  32  80 N3        29.62R
MARSHALL       CLOUDY    37  31  78 SE7       29.61S
REDWOOD FALLS  CLOUDY    37  29  72 S13       29.64F
OLIVIA         CLOUDY    36  32  87 SE12      29.64S
PIPESTONE      CLOUDY    39  36  87 S13       29.58S
WINDOM           N/A     41  27  56 S13       29.64R
WORTHINGTON    CLOUDY    40  33  76 S18       29.60F
JACKSON        CLOUDY    37  32  81 S23G29    29.63F
SLAYTON        CLOUDY    41  36  80 S10       29.61R
$$
MNZ065>067-074>077-082>085-091>093-171400-
   South Central Minnesota

CITY           SKY/WX    TMP DP  RH WIND       PRES   REMARKS
MANKATO        CLOUDY    37  31  78 S14G23    29.70S
NEW ULM        CLOUDY    37  30  75 S13G18    29.67F
ST JAMES       CLOUDY    39  32  75 SE13      29.68S
FAIRMONT       CLOUDY    38  32  79 S20G25    29.67R
GLENCOE        CLOUDY    38  32  78 SE8       29.68S
FARIBAULT      CLOUDY    36  30  80 SE17G23   29.73S
OWATONNA       CLOUDY    36  30  80 SE20G28   29.72F
WASECA         CLOUDY    36  32  87 SE18G25   29.72S
ALBERT LEA     CLOUDY    34  28  80 S20G26    29.73S WCI  22
$$
MNZ078>079-086>088-094>096-171400-
   Southeast Minnesota

CITY           SKY/WX    TMP DP  RH WIND       PRES   REMARKS
ROCHESTER      CLOUDY    34  30  85 S18G32    29.76F WCI  23
RED WING       CLOUDY    37  27  65 SE14      29.77F
STANTON        CLOUDY    37  31  78 S16G25    29.71F
DODGE CENTER   CLOUDY    34  30  86 S20G31    29.74F WCI  22
WINONA         CLOUDY    36  30  80 SE12      29.83S
AUSTIN         CLOUDY    34  28  80 S13G21    29.76F WCI  25
PRESTON        CLOUDY    33  29  86 S16G25    29.81R WCI  22
$$
ABBREVIATIONS USED IN REMARKS
   TC - TEMPERATURES IN CELSIUS
  WCI - WIND CHILL INDEX
   HX - HEAT INDEX
  VSB - VISIBILITY
$$




USA.gov is the U.S. government's official web portal to all federal, state and local government web resources and services.